sat.trackr.live / text

‹ back to catalog

STARLINK-6033

NORAD 56322 · 2023-058F

PAYLOAD ACTIVE UNKNOWN

§ Identity

Operator
Country
US
Launch date
2023-04-27
Launch site
AFWTR
Launch vehicle
Mass (kg)
RCS (m²)

Purposes: comms

External: N2YO · Heavens-Above · Gunter

§ Orbital elements

Epoch: 2026-05-24T23:21:38.552832Z

Period
95.64 min
Inclination
97.4480°
Eccentricity
0.0001581
Mean motion
15.05687182 rev/d
Perigee alt
548.3 km
Apogee alt
550.5 km
Semi-major
6,927.5 km
B*
-5.1548e-4
RAAN
144.9532°
Arg perigee
71.8765°
Mean anomaly
288.2634°
Rev number
16,925

§ Raw data

STARLINK-60331 56322U 23058F   26144.97336288 -.00007496  00000+0 -51548-3 0  99922 56322  97.4480 144.9532 0001581  71.8765 288.2634 15.05687182169258

JSON: /api/v1/satellites/56322 · /tle

For live sub-satellite position, see the globe view (requires WebGL).

§ Visibility from observer

Set your observer location to see the next 7 days of passes ≥ 10°. The values pass through the URL so the page stays shareable.

No JS? Fill the form by hand. The geolocation button needs JavaScript.